Regional Weather Roundup
Issued by NWS

Home | Current Version | Previous Version | Graphics & Text | Print | Product List | Glossary On
Versions: 1 2 3 4 5 6 7 8 9 10 11 12 13 14 15 16 17 18 19 20 21 22 23 24 25 26 27 28 29 30 31 32 33 34 35 36 37 38 39 40 41 42 43 44 45 46
000
ASUS45 KCYS 241510
RWRWY

WYOMING REGIONAL WEATHER ROUNDUP
NATIONAL WEATHER SERVICE CHEYENNE WY
800 AM MST WED DEC 24 2014

NOTE:  "FAIR" INDICATES FEW OR NO CLOUDS BELOW 12,000 FEET
WITH NO SIGNIFICANT WEATHER AND/OR OBSTRUCTIONS TO VISIBILITY.

WYZ001-241600-
YELLOWSTONE NATIONAL PARK

CITY           SKY/WX    TMP DP  RH WIND       PRES   REMARKS
LK YELLOWSTONE   N/A     15  12  88 CALM      29.94F
W YELLOWSTONE  NOT AVBL

$$
WYZ002>013-054>058-071-098>099-241600-
NORTHERN WYOMING

CITY           SKY/WX    TMP DP  RH WIND       PRES   REMARKS
JACKSON        NOT AVBL
CODY           FAIR      36  18  48 W7        29.75F WCI  30
GREYBULL       FAIR      18  13  80 E7        29.83F WCI   9
WORLAND        FAIR      11   6  81 S3        29.83F
SHERIDAN       FAIR      22  16  78 CALM      29.67F
BUFFALO        FAIR      30  19  63 W8        29.68F WCI  22
GILLETTE       FAIR      34  18  52 SW16      29.68F WCI  24
HULETT           N/A    N/A N/A N/A MISG        N/A
NEWCASTLE      FAIR      18  14  86 S3        29.78F

$$
WYZ014>020-022>026-101>103-241600-
CENTRAL WYOMING

CITY           SKY/WX    TMP DP  RH WIND       PRES   REMARKS
BIG PINEY      MOCLDY     2  -2  83 CALM      30.00F
PINEDALE       CLOUDY    14  12  92 CALM      29.99F
DUBOIS         NOT AVBL
LANDER         FAIR      14   6  70 NW3       29.83F
RIVERTON       FAIR      16   9  74 SW6       29.84F WCI   7
CASPER         FAIR      27  15  61 SW30G40   29.82F WCI  11
DOUGLAS        MOCLDY    28  17  63 NW5       29.79F WCI  23

$$
WYZ021-027>030-104>119-241600-
SOUTHERN WYOMING

CITY           SKY/WX    TMP DP  RH WIND       PRES   REMARKS
EVANSTON       FAIR      18  11  74 SW9       30.01F WCI   7
FORT BRIDGER   CLOUDY    30  22  72 W9        30.04F WCI  21
ROCK SPRINGS   FAIR      22  11  62 SW12      30.01F WCI  10
DIXON          FAIR       3  -2  82 CALM      30.13F
RAWLINS        FAIR      24  11  57 VRB5G24   29.99F WCI  18
SARATOGA       FAIR      16   9  73 SE14G20   30.03F WCI   1
LARAMIE        FAIR      17   8  67 CALM      29.90F
CHEYENNE       FAIR      28  12  51 NW15G23   29.83F WCI  16
TORRINGTON     FAIR      20  12  71 CALM      29.83F
PINE BLUFFS    FAIR      23  10  58 SW3       29.86F

$$


USA.gov is the U.S. government's official web portal to all federal, state and local government web resources and services.